This is the latest recevied weather packets stored in our database for station/object KG4ZVW. If no packets are shown the sender has not sent any weather packets the latest 10 day(s).
| Time | Temp. | Humidity | Pressure | Rain* | Wind** | Luminosity | Snow |
|---|---|---|---|---|---|---|---|
| 1777841305 | 25° C | 69% | 1015.3 hPa | 0 mm | - | 220 W/m² | - |
| 1777841018 | 25° C | 68% | 1015.3 hPa | 0 mm | - | 373 W/m² | - |
| 1777840715 | 25° C | 68% | 1015.3 hPa | 0 mm | - | 367 W/m² | - |
| 1777840414 | 25° C | 68% | 1015.3 hPa | 0 mm | - | 279 W/m² | - |
| 1777840108 | 25° C | 67% | 1015.3 hPa | 0 mm | - | 211 W/m² | - |
| 1777839823 | 25.56° C | 66% | 1015.4 hPa | 0 mm | - | 188 W/m² | - |
| 1777839517 | 26.11° C | 67% | 1015.4 hPa | 0 mm | - | 278 W/m² | - |
| 1777839216 | 26.11° C | 65% | 1015.4 hPa | 0 mm | - | 362 W/m² | - |
| 1777838909 | 25.56° C | 68% | 1015.6 hPa | 0 mm | - | 724 W/m² | - |
| 1777838624 | 25° C | 68% | 1015.6 hPa | 0 mm | - | 466 W/m² | - |
| 1777838320 | 25° C | 68% | 1015.6 hPa | 0 mm | - | 411 W/m² | - |
| 1777838015 | 25° C | 70% | 1015.6 hPa | 0 mm | - | 353 W/m² | - |
| 1777837713 | 25° C | 68% | 1015.6 hPa | 0 mm | - | 320 W/m² | - |
| 1777837410 | 25° C | 67% | 1015.6 hPa | 0 mm | - | 206 W/m² | - |
| 1777837104 | 25.56° C | 67% | 1015.8 hPa | 0 mm | - | 265 W/m² | - |
| 1777836821 | 25.56° C | 68% | 1015.8 hPa | 0 mm | - | 438 W/m² | - |
| 1777836516 | 25.56° C | 67% | 1015.8 hPa | 0 mm | - | 758 W/m² | - |
| 1777836214 | 25.56° C | 68% | 1016 hPa | 0 mm | - | 381 W/m² | - |
| 1777835908 | 25.56° C | 69% | 1016 hPa | 0 mm | - | 425 W/m² | - |
| 1777835623 | 25.56° C | 68% | 1016 hPa | 0 mm | - | 489 W/m² | - |
| 1777835316 | 25.56° C | 67% | 1016.3 hPa | 0 mm | - | 434 W/m² | - |
| 1777835012 | 25° C | 69% | 1016.3 hPa | 0 mm | - | 649 W/m² | - |
| 1777834707 | 24.44° C | 69% | 1016.3 hPa | 0 mm | - | 411 W/m² | - |
| 1777834405 | 24.44° C | 70% | 1016.6 hPa | 0 mm | - | 436 W/m² | - |
| 1777834122 | 24.44° C | 69% | 1016.6 hPa | 0 mm | - | 295 W/m² | - |
* Rain latest hour (hover to see other rain measurements)
** Current wind speed in m/s (hover to see current wind gust speed)